Location: Camp Creek
(33.9000°N, 111.8167°W)
Time: 14:47:34
(UTC-07:00)

DELTA 2 R/B (1) - Visible Passes

Search period start: 23 April 2017 00:00
Search period end: 03 May 2017 00:00
Orbit: 790 x 804 km, 39.6° (Epoch: 22 April)

Date Brightness Start Highest point End Pass type
(mag) Time Alt. Az. Time Alt. Az. Time Alt. Az.
23 Apr 3.7 20:52:36 10° WNW 20:58:10 65° SSW 20:59:32 48° SSE visible
24 Apr 3.7 20:21:45 10° WNW 20:27:20 70° SSW 20:30:21 28° SE visible
24 Apr 5.8 22:09:31 10° W 22:11:07 15° WSW 22:11:07 15° WSW visible
25 Apr 3.7 19:50:54 10° WNW 19:56:31 75° SSW 20:01:13 15° ESE visible
25 Apr 5.4 21:38:27 10° W 21:42:00 20° SW 21:42:00 20° SW visible
26 Apr 5.2 21:07:26 10° W 21:11:40 22° SW 21:12:54 21° SSW visible
27 Apr 5.2 20:36:26 10° W 20:40:53 24° SW 20:43:53 16° S visible
28 Apr 5.1 20:05:28 10° W 20:10:06 27° SW 20:14:44 10° SSE visible
29 Apr 5.1 19:34:31 10° W 19:39:19 29° SW 19:44:06 10° SSE visible
